Retour au catalogue

PSLV DEB

ActifPO
NORAD 35342·DEBRIS·🇮🇳 India

Lancé Oct 22, 2001 depuis Satish Dhawan Space Centre

Loading…

Prochains Passages (prochaines 24 heures)

TLE

VieillissantSource: Space-Track

Époque: Sep 11, 2026, 00:13 UTC

1 35342U 01049QA  26254.00942301  .00001193  00000-0  53183-3 0  9996
2 35342  98.3081 177.0688 0339892  18.9496 342.3967 13.97908501672480

Suivez PSLV DEB en temps réel avec AllMySat

Download on the App Store